Regional Weather Roundup
Issued by NWS Goodland, KS

Home | Current Version | Previous Version | Text Only | Print | Product List | Glossary On
Versions: 1 2 3 4 5 6 7 8 9 10 11 12 13 14 15 16 17 18 19 20 21 22 23 24 25 26 27 28 29 30 31 32 33 34 35 36 37 38 39 40 41 42 43 44 45 46 47 48 49 50
000
ASUS43 KGLD 210708
RWRGLD

GOODLAND FORECAST AREA HOURLY WEATHER ROUNDUP
NATIONAL WEATHER SERVICE GOODLAND KS
1200 AM MST SUN DEC 21 2014

...OFFICIAL OBSERVATIONS...

CITY           SKY/WX    TMP DP  RH WIND       PRES   REMARKS
GOODLAND KS    CLOUDY    33  28  81 SW7       29.92F
HILL CITY KS   PTCLDY    34  32  92 W6        29.96S
IMPERIAL NEB   MOCLDY    35  25  66 SW5       29.89F
MCCOOK NEB     PTCLDY    30  26  85 W7        29.90F
AKRON CO       CLOUDY    31  23  72 S8        29.87F
BURLINGTON CO  CLOUDY    32  27  81 W5        29.90F
LIMON CO       PTCLDY    23  20  88 CALM      29.90F
$$

...UNOFFICIAL OBSERVATIONS...

CITY           SKY/WX    TMP DP  RH WIND       PRES   REMARKS
COLBY KS       CLEAR     30  30 100 SW8       29.93F
GOVE KS          N/A     34  32  92 MISG        N/A
NORTON KS      PTCLDY    34  28  80 SW9       29.91F
TRIBUNE KS     MOCLDY    30  30 100 W7        29.94S
KIT CARSON CO    N/A     32  28  85 MISG        N/A
YUMA CO          N/A     31  26  81 CALM        N/A
$$



USA.gov is the U.S. government's official web portal to all federal, state and local government web resources and services.